Location: Riverside
(39.1734°N, 77.8561°W)
Time: 07:46:13
(UTC+00:00)

Hubble Space Telescope - Pass Details

Date: 20 November 2019
Orbit: 536 x 540 km, 28.5° (Epoch: 07 December)

Event Time Altitude Azimuth Distance (km) Brightness Sun altitude
Rises 22:36:00 0° 216° (SW) 2,664 5.3 -8.4°
Reaches altitude 10° 22:39:52 10° 180° (S) 1,777 3.7 -9.1°
Maximum altitude 22:41:01 11° 163° (SSE) 1,714 3.4 -9.4°
Drops below altitude 10° 22:42:10 10° 147° (SSE) 1,779 3.3 -9.6°
Enters shadow 22:44:43 - 120° (ESE) 2,288 3.6 -10.0°
